[[{"header":{"parameterUnit":"m.s-1","parameterCategory":1,"la1":30.2991,"la2":30.254,"lo1":-89.0895,"lo2":-89.0444,"dy":0.0017,"dx":0.0017,"nx":28,"ny":28,"refTime":"2023-09-30T21:00:00:Z","depth":0,"parameterNumber":2,"parameterNumberName":"U-component_of_WINDS"},"data":[0,0,0,0,0,0,0,0,0,0,0,0,0,0,0,0,0,0,0,0,0,0,0,0,0,0,0,0,0,0,0,0,0,0,0,0,0,0,0,0,0,0,0,0,0,0,0,0,0,0,0,0,0,0,0,0,0,0,-5.0353,-5.0354,0,-5.0401,-5.0402,-5.0402,-5.0211,-5.0206,-5.02,-5.0195,-5.0248,-5.0254,-5.0261,0,0,0,0,0,0,0,0,0,0,0,0,0,-5.0099,-5.0105,-5.0353,-5.0354,-5.0355,-5.0401,-5.0402,-5.0403,-5.0212,-5.0206,-5.0199,-5.0192,-5.0246,-5.0254,-5.0262,0,0,0,0,0,0,0,0,0,0,0,0,0,-5.0185,-5.0106,-5.0353,-5.0265,-5.0258,-5.0401,-5.0402,-5.0403,-5.0214,-5.0205,-5.0197,-5.0189,-5.0243,-5.0253,-5.0263,-5.0494,0,0,-5.0293,-5.0298,0,0,0,0,0,0,0,0,-5.018,-5.0194,-5.0278,-5.0271,-5.0263,-5.0291,-5.0331,-5.0434,-5.0216,-5.0231,-5.0195,-5.0185,-5.027,-5.0277,-5.0305,-5.0497,-5.0499,-5.0294,-5.03,-5.0305,-5.0308,0,0,0,0,0,0,0,-5.0174,-5.0191,-5.0372,-5.0279,-5.027,-5.0224,-5.0227,-5.035,-5.0297,-5.0229,-5.0215,-5.0223,-5.0264,-5.0295,-5.0304,-5.05,-5.0294,-5.0303,-5.0309,-5.0313,-5.0883,-5.0892,0,0,0,0,0,0,-5.018,-5.0187,-5.0371,-5.0374,-5.02,-5.0235,-5.0238,-5.0291,-5.0295,-5.0288,-5.023,-5.0214,-5.0282,-5.0293,-5.0306,-5.0576,-5.0305,-5.0314,-5.032,-5.0874,-5.0885,-5.0895,0,0,0,0,0,0,-5.0175,-5.0198,-5.0369,-5.0277,-5.0295,-5.0249,-5.031,-5.0297,-5.0328,-5.0296,-5.0286,-5.0272,-5.0276,-5.0292,-5.0448,-5.0576,-5.0319,-5.0328,-5.0863,-5.0878,-5.089,-5.1121,0,0,0,0,0,0,-5.0168,-5.0197,-5.0285,-5.028,-5.0301,-5.0511,-5.0317,-5.0304,-5.0345,-5.0324,-5.0333,-5.0326,-5.0271,-5.0434,-5.0458,-5.0585,-5.0335,-5.0852,-5.087,-5.0886,-5.1102,-5.1141,-5.1174,0,0,0,0,0,-5.016,-5.0349,-5.029,-5.0313,-5.0409,-5.0519,-5.053,-5.0462,-5.0356,-5.0444,-5.0423,-5.0326,-5.0558,-5.0452,-5.0477,-5.0609,-5.0843,-5.0865,-5.0885,-5.1086,-5.1133,-5.1174,0,0,0,0,0,0,-5.0371,-5.0347,-5.0281,-5.0474,-5.05,-5.0486,-5.0595,-5.0515,-5.0572,-5.055,-5.0463,-5.0467,-5.0639,-5.0639,-5.0522,-5.0833,-5.0682,-5.0709,-5.0827,-5.0872,-5.0907,-5.0904,-5.0344,0,0,0,0,0,-5.044,-5.053,-5.0504,-5.0677,-5.0693,-5.0642,-5.0687,-5.0632,-5.0656,-5.0666,-5.0657,-5.0685,-5.0763,-5.0817,-5.0888,-5.11,-5.1099,-5.1203,-5.1239,-5.1269,-5.1294,-5.1406,-5.1451,-5.0963,-5.0962,-5.0962,0,0,-5.0584,-5.0581,-5.0644,-5.0719,-5.0733,-5.0829,-5.0653,-5.0762,-5.0833,-5.0683,-5.083,-5.0825,-5.0849,-5.1035,-5.1116,-5.104,-5.1428,-5.1295,-5.132,-5.1328,-5.1431,-5.1478,-5.1519,-5.0976,-5.0974,-5.0972,0,0,-5.0894,-5.0902,-5.1046,-5.1062,-5.1084,-5.1048,-5.1083,-5.1081,-5.1072,-5.1217,-5.1106,-5.1189,-5.1327,-5.1349,-5.1378,-5.1696,-5.1608,-5.1721,-5.1911,-5.2021,-5.206,-5.2093,-5.2207,-5.2249,-5.1745,-5.1746,-5.1746,0,-5.107,-5.121,-5.113,-5.1247,-5.1283,-5.115,-5.1295,-5.1315,-5.136,-5.1389,-5.1302,-5.1471,-5.1479,-5.1667,-5.1744,-5.1773,-5.181,-5.172,-5.206,-5.2093,-5.2124,-5.2231,-5.2274,-5.1759,-5.1758,-5.1756,-5.1755,0,-5.1425,-5.1524,-5.1638,-5.1683,-5.1731,-5.1863,-5.1803,-5.1862,-5.1802,-5.1776,-5.1926,-5.193,-5.1999,-5.2039,-5.1982,-5.222,-5.2172,-5.2075,-5.1922,-5.2185,-5.2285,-5.2325,-5.1779,-5.1774,-5.177,-5.1767,0,0,-5.1873,-5.187,-5.1913,-5.1931,-5.1944,-5.2019,-5.2144,-5.2209,-5.2262,-5.2297,-5.2399,-5.2518,-5.2427,-5.2461,-5.2405,-5.2502,-5.2752,-5.2392,-5.2391,-5.2459,-5.3014,-5.3088,-5.3137,-5.2694,-5.2701,-5.2707,-5.3012,0,-5.2178,-5.2389,-5.232,-5.2535,-5.2625,-5.2498,-5.2607,-5.2627,-5.2606,-5.2679,-5.2655,-5.2741,-5.2615,-5.2634,-5.2724,-5.2703,-5.2863,-5.268,-5.2789,-5.2794,-5.2788,-5.3189,-5.3268,-5.3556,-5.3051,-5.3057,-5.3062,0,-5.2562,-5.2611,-5.2834,-5.2831,-5.2866,-5.2965,-5.3018,-5.309,-5.311,-5.3088,-5.3125,-5.3048,-5.317,-5.3016,-5.3183,-5.3061,-5.3101,-5.3098,-5.3107,-5.3115,-5.2945,-5.3209,-5.3646,-5.369,-5.3122,-5.3117,-5.3113,0,-5.2867,-5.2988,-5.3136,-5.3156,-5.3156,-5.3228,-5.3231,-5.3243,-5.3286,-5.3334,-5.3361,-5.3423,-5.3457,-5.3507,-5.3449,-5.3342,-5.3625,-5.3467,-5.3611,-5.3613,-5.3677,-5.3674,-5.4128,-5.3703,-5.3702,-5.3701,-5.37,0,-5.3215,-5.3357,-5.3273,-5.3365,-5.352,-5.3439,-5.3595,-5.3584,-5.3595,-5.3683,-5.3577,-5.3663,-5.358,-5.3658,-5.3614,-5.3759,-5.3775,-5.3761,-5.3748,-5.3771,-5.3773,-5.3797,-5.3776,-5.3712,-5.371,-5.3708,-5.3706,0,-5.3582,-5.3531,-5.3685,-5.3672,-5.3671,-5.3786,-5.3775,-5.3859,-5.3829,-5.3942,-5.3964,-5.3918,-5.4003,-5.395,-5.4037,-5.4007,-5.4197,-5.4156,-5.419,-5.4179,-5.4327,-5.4314,-5.4812,-5.4873,-5.4409,-5.4413,-5.4417,0,-5.3808,-5.3914,-5.3911,-5.3961,-5.3971,-5.4055,-5.4098,-5.4022,-5.4071,-5.4101,-5.4183,-5.4259,-5.4316,-5.4459,-5.4434,-5.45,-5.446,-5.4629,-5.4469,-5.4489,-5.4463,-5.4458,-5.4468,-5.4663,-5.4668,-5.4673,-5.4676,0,-5.4215,-5.4184,-5.425,-5.4307,-5.4361,-5.4403,-5.4436,-5.4484,-5.4408,-5.4469,-5.4554,-5.4598,-5.4686,-5.4764,-5.4819,-5.4822,-5.4738,-5.4726,-5.4763,-5.4789,-5.4805,-5.4798,-5.4279,-5.4716,-5.4712,-5.4709,-5.4707,-5.4705,-5.4518,-5.4606,-5.4617,-5.4694,-5.471,-5.4744,-5.4822,-5.4801,-5.487,-5.4935,-5.4886,-5.4988,-5.5004,-5.5069,-5.5084,-5.5163,-5.5094,-5.5147,-5.5161,-5.5176,-5.5196,-5.4791,-5.5172,-5.5171,-5.517,-5.5169,-5.5168,0,-5.492,-5.492,-5.4991,-5.504,-5.5101,-5.5013,-5.5045,-5.5101,-5.5192,-5.5213,-5.5271,-5.5369,-5.5443,-5.5423,-5.5489,-5.5556,-5.5519,-5.5576,-5.5571,-5.5573,-5.5254,-5.5215,-5.5605,-5.5605,-5.5605,-5.5605,-5.5605,-5.5605,-5.5136,-5.528,-5.525,-5.5401,-5.54,-5.5498,-5.5524,-5.5554,-5.557,-5.5684,-5.5744,-5.573,-5.5735,-5.58,-5.5864,-5.5856,-5.5886,-5.5958,-5.5937,-5.5639,-5.5596,-5.5555,-5.5518,-5.5965,-5.5965,-5.6249,-5.6252,-5.6254]},{"header":{"parameterUnit":"m.s-1","parameterCategory":1,"la1":30.2991,"la2":30.254,"lo1":-89.0895,"lo2":-89.0444,"dy":0.0017,"dx":0.0017,"nx":28,"ny":28,"refTime":"2023-09-30T21:00:00:Z","depth":0,"parameterNumber":3,"parameterNumberName":"V-component_of_WINDS"},"data":[0,0,0,0,0,0,0,0,0,0,0,0,0,0,0,0,0,0,0,0,0,0,0,0,0,0,0,0,0,0,0,0,0,0,0,0,0,0,0,0,0,0,0,0,0,0,0,0,0,0,0,0,0,0,0,0,0,0,-2.236,-2.236,0,-2.238,-2.238,-2.238,-2.2376,-2.2375,-2.2375,-2.2375,-2.2394,-2.2395,-2.2395,0,0,0,0,0,0,0,0,0,0,0,0,0,-2.2315,-2.2316,-2.236,-2.236,-2.236,-2.238,-2.238,-2.238,-2.2376,-2.2375,-2.2375,-2.2375,-2.2394,-2.2395,-2.2396,0,0,0,0,0,0,0,0,0,0,0,0,0,-2.2335,-2.2317,-2.236,-2.2361,-2.2361,-2.238,-2.238,-2.238,-2.2376,-2.2375,-2.2375,-2.2374,-2.2393,-2.2394,-2.2396,-2.2414,0,0,-2.24,-2.24,0,0,0,0,0,0,0,0,-2.2334,-2.2337,-2.236,-2.236,-2.2361,-2.2375,-2.2371,-2.2392,-2.2376,-2.237,-2.2375,-2.2374,-2.2388,-2.2389,-2.2394,-2.2415,-2.2416,-2.24,-2.24,-2.2401,-2.2401,0,0,0,0,0,0,0,-2.2332,-2.2336,-2.2368,-2.236,-2.2361,-2.2359,-2.2361,-2.2375,-2.2382,-2.2371,-2.237,-2.2373,-2.2388,-2.2393,-2.2395,-2.2416,-2.24,-2.2401,-2.2402,-2.2402,-2.2451,-2.2452,0,0,0,0,0,0,-2.2331,-2.2335,-2.2367,-2.2368,-2.2346,-2.236,-2.2363,-2.2371,-2.2382,-2.2383,-2.2373,-2.2373,-2.2391,-2.2393,-2.2395,-2.2417,-2.2401,-2.2402,-2.2403,-2.2451,-2.2452,-2.2452,0,0,0,0,0,0,-2.233,-2.2334,-2.2366,-2.2351,-2.2355,-2.2362,-2.2371,-2.2371,-2.2377,-2.2384,-2.2385,-2.2378,-2.2391,-2.2394,-2.2409,-2.2417,-2.2403,-2.2404,-2.245,-2.2451,-2.2452,-2.246,0,0,0,0,0,0,-2.2329,-2.2334,-2.2342,-2.2352,-2.2356,-2.2381,-2.2371,-2.2372,-2.2379,-2.2378,-2.2388,-2.2389,-2.2391,-2.2407,-2.2411,-2.2419,-2.2405,-2.245,-2.2451,-2.2452,-2.2459,-2.2461,-2.2463,0,0,0,0,0,-2.2327,-2.2344,-2.2342,-2.2346,-2.2366,-2.2381,-2.2384,-2.2386,-2.238,-2.2387,-2.2391,-2.2389,-2.2416,-2.2409,-2.2413,-2.2421,-2.2449,-2.245,-2.2452,-2.2458,-2.2461,-2.2463,0,0,0,0,0,0,-2.2335,-2.2345,-2.2344,-2.2364,-2.2371,-2.238,-2.239,-2.2388,-2.2398,-2.2397,-2.2398,-2.24,-2.2416,-2.242,-2.2412,-2.2439,-2.2432,-2.2434,-2.2436,-2.2438,-2.244,-2.2438,-2.2406,0,0,0,0,0,-2.2339,-2.2351,-2.2359,-2.2375,-2.2379,-2.2384,-2.2391,-2.2391,-2.2399,-2.2402,-2.2408,-2.2415,-2.2425,-2.2432,-2.2442,-2.246,-2.2461,-2.2467,-2.2469,-2.2471,-2.2472,-2.248,-2.2483,-2.2456,-2.2456,-2.2456,0,0,-2.2347,-2.2354,-2.2362,-2.2377,-2.2383,-2.2394,-2.2387,-2.2399,-2.2407,-2.2404,-2.2419,-2.2423,-2.2431,-2.2448,-2.2455,-2.2452,-2.248,-2.2472,-2.2473,-2.2474,-2.2482,-2.2484,-2.2486,-2.2457,-2.2457,-2.2457,0,0,-2.2368,-2.2375,-2.2389,-2.2395,-2.2404,-2.2407,-2.241,-2.2419,-2.2421,-2.2436,-2.2433,-2.2442,-2.246,-2.2466,-2.2471,-2.2491,-2.2488,-2.2494,-2.2503,-2.2511,-2.2513,-2.2515,-2.2521,-2.2523,-2.2496,-2.2496,-2.2496,0,-2.2377,-2.2394,-2.2396,-2.2408,-2.2414,-2.2412,-2.2425,-2.243,-2.2442,-2.2446,-2.2442,-2.2463,-2.2469,-2.2485,-2.249,-2.2495,-2.2497,-2.2493,-2.2513,-2.2515,-2.2516,-2.2522,-2.2524,-2.2496,-2.2496,-2.2496,-2.2496,0,-2.2404,-2.2416,-2.2425,-2.2437,-2.2444,-2.2456,-2.2459,-2.2466,-2.2465,-2.2468,-2.2482,-2.2488,-2.2499,-2.2503,-2.2503,-2.2519,-2.2516,-2.2513,-2.2505,-2.2519,-2.2525,-2.2527,-2.2497,-2.2497,-2.2497,-2.2496,0,0,-2.2431,-2.2441,-2.2445,-2.2449,-2.2458,-2.2467,-2.2478,-2.2488,-2.2493,-2.2501,-2.251,-2.2524,-2.252,-2.2526,-2.2526,-2.2533,-2.2547,-2.2528,-2.2529,-2.2531,-2.2563,-2.2565,-2.2568,-2.2545,-2.2546,-2.2546,-2.2562,0,-2.2451,-2.2472,-2.2473,-2.2492,-2.2501,-2.2498,-2.2508,-2.2514,-2.2516,-2.2524,-2.2527,-2.2536,-2.2531,-2.2534,-2.2541,-2.2544,-2.2553,-2.2543,-2.2553,-2.2553,-2.255,-2.2571,-2.2574,-2.2589,-2.2564,-2.2565,-2.2565,0,-2.2478,-2.2486,-2.2505,-2.2511,-2.2515,-2.2524,-2.2532,-2.254,-2.2546,-2.2547,-2.2553,-2.2552,-2.2562,-2.2555,-2.2569,-2.2561,-2.2565,-2.2567,-2.2568,-2.2568,-2.2559,-2.2571,-2.2594,-2.2595,-2.2569,-2.2568,-2.2568,0,-2.2494,-2.2509,-2.2522,-2.2526,-2.2534,-2.254,-2.2543,-2.2549,-2.2554,-2.2561,-2.2564,-2.2572,-2.2576,-2.2582,-2.2582,-2.2577,-2.2595,-2.2588,-2.2596,-2.2596,-2.26,-2.2599,-2.2622,-2.2604,-2.2603,-2.2603,-2.2603,0,-2.2516,-2.2528,-2.2529,-2.2537,-2.255,-2.255,-2.2562,-2.2565,-2.2569,-2.2577,-2.2575,-2.2582,-2.2583,-2.259,-2.259,-2.2601,-2.2603,-2.2603,-2.2603,-2.2603,-2.2603,-2.2605,-2.2604,-2.2604,-2.2604,-2.2604,-2.2604,0,-2.2536,-2.2538,-2.2551,-2.2557,-2.2558,-2.2567,-2.2571,-2.2578,-2.258,-2.2589,-2.2591,-2.2594,-2.2602,-2.2603,-2.2613,-2.2613,-2.2625,-2.2624,-2.2623,-2.2622,-2.2629,-2.2628,-2.2654,-2.2657,-2.2637,-2.2637,-2.2637,0,-2.2549,-2.2558,-2.2564,-2.2569,-2.2572,-2.258,-2.2585,-2.2585,-2.259,-2.2597,-2.2603,-2.261,-2.2617,-2.2629,-2.2631,-2.2638,-2.2637,-2.2645,-2.2638,-2.2637,-2.2636,-2.2635,-2.2635,-2.2647,-2.2647,-2.2647,-2.2647,0,-2.2573,-2.2573,-2.258,-2.2587,-2.2593,-2.2599,-2.2604,-2.2608,-2.2608,-2.2614,-2.2622,-2.2627,-2.2636,-2.2643,-2.2649,-2.2652,-2.2649,-2.265,-2.2651,-2.2651,-2.2649,-2.2649,-2.2626,-2.2649,-2.2649,-2.2649,-2.2649,-2.2649,-2.2589,-2.2596,-2.2601,-2.2608,-2.2612,-2.2616,-2.2623,-2.2625,-2.2631,-2.2639,-2.2638,-2.2646,-2.265,-2.2659,-2.2662,-2.2668,-2.2665,-2.2668,-2.2668,-2.2669,-2.2669,-2.2649,-2.2669,-2.2669,-2.2669,-2.2669,-2.2669,0,-2.2611,-2.2614,-2.2621,-2.2628,-2.2633,-2.263,-2.2635,-2.264,-2.2647,-2.2652,-2.2657,-2.2665,-2.2672,-2.2674,-2.268,-2.2684,-2.2683,-2.2686,-2.2685,-2.2686,-2.2672,-2.2669,-2.2687,-2.2687,-2.2687,-2.2687,-2.2687,-2.2687,-2.2624,-2.2634,-2.2635,-2.2647,-2.2649,-2.2657,-2.266,-2.2663,-2.2666,-2.2676,-2.2681,-2.2682,-2.2685,-2.2691,-2.2697,-2.2697,-2.2699,-2.2702,-2.2702,-2.2689,-2.2687,-2.2685,-2.2682,-2.2702,-2.2702,-2.2715,-2.2715,-2.2715]}]]